| time (UTC) | temp F | wind direction | speed knots | gust knots | rain 1hr in | rain 24hr in | rain mn in | humidity % | barometer mb |
| 20260902120517 | 70 | 0.0 | 0.0 | 0.01 | 0.06 | 0.01 | 96 | 1013.4 | |
| 20260902120057 | 70 | 0.0 | 0.9 | 0.01 | 0.06 | 0.01 | 96 | 1013.3 | |
| 20260902115518 | 69 | 37 | 0.0 | 1.7 | 0.01 | 0.06 | 0.01 | 96 | 1013.3 |
| 20260902115017 | 69 | 40 | 0.9 | 1.7 | 0.01 | 0.06 | 0.01 | 96 | 1013.3 |
| 20260902114517 | 69 | 102 | 0.9 | 1.7 | 0.00 | 0.05 | 0.00 | 96 | 1013.2 |
| 20260902114038 | 69 | 113 | 0.0 | 1.7 | 0.00 | 0.05 | 0.00 | 96 | 1013.0 |
| 20260902113517 | 69 | 113 | 0.0 | 1.7 | 0.00 | 0.05 | 0.00 | 96 | 1013.0 |
| 20260902113017 | 69 | 114 | 0.0 | 1.7 | 0.00 | 0.05 | 0.00 | 96 | 1013.1 |
| 20260902112518 | 69 | 113 | 0.9 | 1.7 | 0.00 | 0.05 | 0.00 | 96 | 1013.2 |
| 20260902112037 | 69 | 62 | 0.0 | 2.6 | 0.00 | 0.05 | 0.00 | 96 | 1013.2 |
| 20260902111517 | 69 | 19 | 0.9 | 2.6 | 0.00 | 0.05 | 0.00 | 96 | 1013.2 |
| 20260902111022 | 69 | 5 | 0.0 | 2.6 | 0.00 | 0.05 | 0.00 | 96 | 1013.2 |
| 20260902110516 | 69 | 14 | 1.7 | 2.6 | 0.00 | 0.05 | 0.00 | 96 | 1013.1 |
| 20260902110037 | 69 | 117 | 0.0 | 1.7 | 0.00 | 0.05 | 0.00 | 96 | 1013.0 |
| 20260902105516 | 69 | 120 | 0.0 | 1.7 | 0.00 | 0.05 | 0.00 | 96 | 1012.9 |
| 20260902105017 | 69 | 131 | 0.0 | 1.7 | 0.00 | 0.05 | 0.00 | 96 | 1012.9 |
| 20260902104557 | 69 | 130 | 0.9 | 1.7 | 0.00 | 0.05 | 0.00 | 96 | 1012.9 |
| 20260902104017 | 69 | 129 | 0.9 | 1.7 | 0.00 | 0.05 | 0.00 | 96 | 1012.9 |
| 20260902103517 | 69 | 129 | 0.0 | 1.7 | 0.00 | 0.05 | 0.00 | 96 | 1013.0 |
| 20260902103018 | 69 | 129 | 0.0 | 1.7 | 0.00 | 0.05 | 0.00 | 96 | 1013.0 |
| 20260902102517 | 69 | 126 | 0.0 | 1.7 | 0.00 | 0.05 | 0.00 | 95 | 1012.9 |
| 20260902102037 | 70 | 120 | 0.0 | 1.7 | 0.00 | 0.05 | 0.00 | 96 | 1013.1 |
| 20260902101537 | 70 | 123 | 0.0 | 1.7 | 0.00 | 0.05 | 0.00 | 96 | 1013.1 |
| 20260902101017 | 70 | 138 | 0.0 | 1.7 | 0.00 | 0.05 | 0.00 | 96 | 1013.0 |
| 20260902100516 | 70 | 113 | 0.0 | 3.5 | 0.00 | 0.05 | 0.00 | 96 | 1013.0 |
| 20260902100017 | 70 | 9 | 1.7 | 3.5 | 0.00 | 0.05 | 0.00 | 96 | 1013.1 |
| 20260902095516 | 70 | 9 | 0.0 | 0.9 | 0.00 | 0.05 | 0.00 | 95 | 1013.1 |
| 20260902095016 | 70 | 0.0 | 0.0 | 0.00 | 0.05 | 0.00 | 95 | 1013.0 | |
| 20260902094517 | 70 | 0.0 | 0.0 | 0.00 | 0.05 | 0.00 | 95 | 1013.0 | |
| 20260902094016 | 71 | 0.0 | 0.0 | 0.00 | 0.05 | 0.00 | 95 | 1013.0 | |
| 20260902093516 | 71 | 0.0 | 0.0 | 0.00 | 0.05 | 0.00 | 96 | 1013.0 | |
| 20260902093036 | 71 | 0.0 | 0.0 | 0.00 | 0.05 | 0.00 | 95 | 1012.9 | |
| 20260902092517 | 71 | 0.0 | 0.0 | 0.00 | 0.05 | 0.00 | 95 | 1012.9 | |
| 20260902092038 | 71 | 0.0 | 0.0 | 0.00 | 0.05 | 0.00 | 96 | 1013.0 | |
| 20260902091516 | 71 | 0.0 | 0.0 | 0.00 | 0.05 | 0.00 | 96 | 1013.0 | |
| 20260902091016 | 71 | 0.0 | 0.0 | 0.00 | 0.05 | 0.00 | 96 | 1013.0 | |
| 20260902090516 | 71 | 0.0 | 0.0 | 0.00 | 0.05 | 0.00 | 96 | 1012.9 | |
| 20260902090036 | 71 | 0.0 | 0.0 | 0.00 | 0.05 | 0.00 | 96 | 1012.8 | |
| 20260902085517 | 71 | 0.0 | 0.9 | 0.00 | 0.05 | 0.00 | 95 | 1012.8 | |
| 20260902085018 | 72 | 96 | 0.0 | 1.7 | 0.00 | 0.05 | 0.00 | 95 | 1012.7 |
| 20260902084517 | 72 | 96 | 0.0 | 1.7 | 0.00 | 0.05 | 0.00 | 95 | 1012.8 |
| 20260902084016 | 72 | 46 | 0.0 | 0.9 | 0.00 | 0.05 | 0.00 | 96 | 1012.8 |
| 20260902083516 | 72 | 47 | 0.0 | 1.7 | 0.00 | 0.05 | 0.00 | 96 | 1012.7 |
| 20260902083017 | 72 | 49 | 0.0 | 1.7 | 0.00 | 0.05 | 0.00 | 96 | 1012.7 |
| 20260902082516 | 72 | 48 | 0.9 | 1.7 | 0.00 | 0.05 | 0.00 | 96 | 1012.6 |
| 20260902082016 | 72 | 60 | 0.0 | 1.7 | 0.00 | 0.05 | 0.00 | 95 | 1012.6 |
| 20260902081516 | 72 | 111 | 0.0 | 1.7 | 0.00 | 0.05 | 0.00 | 95 | 1012.5 |
| 20260902081016 | 72 | 115 | 0.9 | 1.7 | 0.00 | 0.05 | 0.00 | 95 | 1012.5 |
| 20260902080536 | 72 | 149 | 0.0 | 3.5 | 0.00 | 0.05 | 0.00 | 95 | 1012.6 |
| 20260902080016 | 72 | 167 | 0.9 | 3.5 | 0.00 | 0.05 | 0.00 | 95 | 1012.6 |
| 20260902075516 | 72 | 176 | 0.0 | 3.5 | 0.00 | 0.05 | 0.00 | 95 | 1012.7 |
| 20260902075017 | 72 | 14 | 0.9 | 2.6 | 0.00 | 0.05 | 0.00 | 95 | 1012.8 |
| 20260902074516 | 73 | 0.0 | 0.9 | 0.00 | 0.05 | 0.00 | 95 | 1012.8 | |
| 20260902074036 | 73 | 318 | 0.0 | 0.9 | 0.00 | 0.05 | 0.00 | 95 | 1012.8 |
| 20260902073516 | 73 | 0.0 | 0.0 | 0.00 | 0.05 | 0.00 | 95 | 1012.9 | |
| 20260902073016 | 73 | 0.0 | 0.0 | 0.00 | 0.05 | 0.00 | 95 | 1012.9 | |
| 20260902072517 | 73 | 0.0 | 0.0 | 0.00 | 0.05 | 0.00 | 95 | 1012.7 | |
| 20260902072016 | 74 | 0.0 | 0.0 | 0.00 | 0.05 | 0.00 | 95 | 1012.7 | |
| 20260902071516 | 74 | 0.0 | 0.9 | 0.00 | 0.05 | 0.00 | 95 | 1012.7 | |
| 20260902071016 | 74 | 318 | 0.0 | 0.9 | 0.00 | 0.05 | 0.00 | 95 | 1012.7 |
| 20260902070517 | 74 | 318 | 0.0 | 0.9 | 0.00 | 0.05 | 0.00 | 95 | 1012.6 |
| 20260902070037 | 74 | 326 | 0.0 | 1.7 | 0.00 | 0.05 | 0.00 | 95 | 1012.6 |
| 20260902065516 | 74 | 325 | 0.9 | 1.7 | 0.00 | 0.05 | 0.00 | 96 | 1012.7 |
| 20260902065016 | 74 | 342 | 0.9 | 2.6 | 0.00 | 0.05 | 0.00 | 95 | 1012.8 |
| 20260902064517 | 74 | 323 | 0.9 | 2.6 | 0.00 | 0.05 | 0.00 | 95 | 1012.8 |
| 20260902064016 | 75 | 306 | 0.9 | 2.6 | 0.00 | 0.05 | 0.00 | 96 | 1012.7 |
| 20260902063516 | 75 | 289 | 0.9 | 3.5 | 0.00 | 0.05 | 0.00 | 96 | 1012.7 |
| 20260902063017 | 75 | 279 | 1.7 | 3.5 | 0.00 | 0.05 | 0.00 | 96 | 1012.6 |
| 20260902062516 | 75 | 273 | 0.9 | 3.5 | 0.00 | 0.05 | 0.00 | 96 | 1012.6 |
| 20260902062016 | 75 | 288 | 0.9 | 2.6 | 0.00 | 0.05 | 0.00 | 96 | 1012.5 |
| 20260902061517 | 75 | 282 | 0.9 | 3.5 | 0.00 | 0.05 | 0.00 | 96 | 1012.5 |
| 20260902061017 | 74 | 281 | 0.9 | 3.5 | 0.00 | 0.05 | 0.00 | 96 | 1012.6 |
| 20260902060516 | 74 | 259 | 0.0 | 1.7 | 0.00 | 0.05 | 0.00 | 96 | 1012.5 |
| 20260902060016 | 74 | 167 | 0.0 | 0.9 | 0.00 | 0.05 | 0.00 | 96 | 1012.5 |
| 20260902055556 | 74 | 173 | 0.0 | 0.9 | 0.00 | 0.05 | 0.00 | 96 | 1012.5 |
| 20260902055016 | 74 | 290 | 0.0 | 0.9 | 0.00 | 0.05 | 0.00 | 96 | 1012.4 |
| 20260902054516 | 74 | 339 | 0.0 | 0.9 | 0.00 | 0.05 | 0.00 | 96 | 1012.5 |
| 20260902054017 | 74 | 0.0 | 0.0 | 0.00 | 0.05 | 0.00 | 96 | 1012.5 | |
| 20260902053516 | 74 | 0.0 | 0.9 | 0.00 | 0.05 | 0.00 | 95 | 1012.5 | |
| 20260902053016 | 74 | 339 | 0.0 | 0.9 | 0.00 | 0.05 | 0.00 | 95 | 1012.5 |
| 20260902052516 | 74 | 339 | 0.0 | 2.6 | 0.00 | 0.05 | 0.00 | 95 | 1012.5 |
| 20260902052016 | 74 | 342 | 0.9 | 2.6 | 0.00 | 0.05 | 0.00 | 95 | 1012.5 |
| 20260902051517 | 74 | 358 | 0.0 | 2.6 | 0.00 | 0.05 | 0.00 | 96 | 1012.5 |
| 20260902051016 | 74 | 102 | 0.0 | 1.7 | 0.00 | 0.05 | 0.00 | 96 | 1012.5 |
| 20260902050516 | 74 | 110 | 0.0 | 2.6 | 0.00 | 0.05 | 0.00 | 96 | 1012.5 |
| 20260902050016 | 74 | 137 | 0.9 | 2.6 | 0.00 | 0.05 | 0.00 | 95 | 1012.5 |
| 20260902045517 | 74 | 139 | 0.0 | 1.7 | 0.01 | 0.05 | 0.00 | 95 | 1012.6 |
| 20260902045016 | 74 | 355 | 0.9 | 1.7 | 0.01 | 0.05 | 0.00 | 95 | 1012.7 |
| 20260902044516 | 73 | 0.0 | 0.0 | 0.01 | 0.05 | 0.00 | 95 | 1012.7 | |
| 20260902044036 | 73 | 0.0 | 1.7 | 0.01 | 0.05 | 0.00 | 95 | 1012.7 | |
| 20260902043536 | 73 | 189 | 0.0 | 1.7 | 0.01 | 0.05 | 0.00 | 95 | 1012.7 |
| 20260902043016 | 73 | 0.0 | 0.0 | 0.01 | 0.05 | 0.00 | 95 | 1012.8 | |
| 20260902042516 | 73 | 0.0 | 0.9 | 0.01 | 0.05 | 0.00 | 95 | 1012.9 | |
| 20260902042016 | 73 | 106 | 0.0 | 1.7 | 0.01 | 0.05 | 0.00 | 95 | 1012.8 |
| 20260902041557 | 73 | 105 | 0.9 | 1.7 | 0.01 | 0.05 | 0.00 | 95 | 1012.8 |
| 20260902041016 | 73 | 105 | 0.9 | 2.6 | 0.01 | 0.05 | 0.00 | 95 | 1012.6 |
| 20260902040516 | 74 | 105 | 0.9 | 2.6 | 0.01 | 0.05 | 0.00 | 95 | 1012.7 |
| 20260902040016 | 74 | 104 | 0.0 | 1.7 | 0.01 | 0.05 | 0.05 | 95 | 1012.7 |
| 20260902035516 | 74 | 0.0 | 0.0 | 0.00 | 0.04 | 0.04 | 95 | 1012.7 | |
| 20260902035018 | 74 | 0.0 | 0.9 | 0.00 | 0.04 | 0.04 | 95 | 1012.7 | |
| 20260902034517 | 74 | 104 | 0.0 | 0.9 | 0.00 | 0.04 | 0.04 | 95 | 1012.8 |
| 20260902034016 | 74 | 104 | 0.0 | 0.9 | 0.00 | 0.04 | 0.04 | 95 | 1012.7 |
| 20260902033516 | 74 | 0.0 | 0.0 | 0.00 | 0.04 | 0.04 | 95 | 1012.6 | |
| 20260902033016 | 74 | 0.0 | 0.0 | 0.00 | 0.04 | 0.04 | 95 | 1012.5 | |
| 20260902032516 | 74 | 0.0 | 0.0 | 0.00 | 0.04 | 0.04 | 95 | 1012.6 | |
| 20260902032016 | 74 | 0.0 | 0.9 | 0.00 | 0.04 | 0.04 | 95 | 1012.6 | |
| 20260902031516 | 74 | 104 | 0.0 | 0.9 | 0.00 | 0.04 | 0.04 | 95 | 1012.6 |
| 20260902031016 | 74 | 104 | 0.0 | 0.9 | 0.00 | 0.04 | 0.04 | 95 | 1012.6 |
| 20260902030516 | 74 | 103 | 0.0 | 0.9 | 0.00 | 0.04 | 0.04 | 94 | 1012.7 |
| 20260902030037 | 74 | 103 | 0.0 | 0.9 | 0.00 | 0.04 | 0.04 | 94 | 1012.6 |
| 20260902025516 | 74 | 103 | 0.0 | 0.9 | 0.00 | 0.04 | 0.04 | 94 | 1012.7 |
| 20260902025016 | 75 | 104 | 0.0 | 0.9 | 0.00 | 0.04 | 0.04 | 95 | 1012.7 |
| 20260902024516 | 75 | 0.0 | 0.9 | 0.00 | 0.04 | 0.04 | 95 | 1012.7 | |
| 20260902024037 | 75 | 104 | 0.0 | 0.9 | 0.00 | 0.04 | 0.04 | 95 | 1012.7 |
| 20260902023516 | 75 | 0.0 | 1.7 | 0.00 | 0.04 | 0.04 | 94 | 1012.7 | |
| 20260902023017 | 75 | 104 | 0.0 | 1.7 | 0.00 | 0.04 | 0.04 | 94 | 1012.7 |
| 20260902022516 | 75 | 127 | 0.9 | 1.7 | 0.00 | 0.04 | 0.04 | 94 | 1012.6 |
| 20260902022016 | 75 | 129 | 0.0 | 1.7 | 0.00 | 0.04 | 0.04 | 94 | 1012.6 |
| 20260902021516 | 75 | 133 | 0.0 | 2.6 | 0.00 | 0.04 | 0.04 | 94 | 1012.6 |
| 20260902021016 | 75 | 119 | 0.9 | 2.6 | 0.00 | 0.04 | 0.04 | 94 | 1012.6 |
| 20260902020516 | 75 | 119 | 0.9 | 2.6 | 0.00 | 0.04 | 0.04 | 94 | 1012.7 |
| 20260902020016 | 76 | 106 | 0.9 | 2.6 | 0.01 | 0.04 | 0.04 | 94 | 1012.6 |
| 20260902015557 | 76 | 30 | 0.0 | 0.9 | 0.01 | 0.04 | 0.04 | 94 | 1012.6 |
| 20260902015017 | 76 | 0.0 | 2.6 | 0.01 | 0.04 | 0.04 | 94 | 1012.6 | |
| 20260902014517 | 76 | 31 | 0.0 | 3.5 | 0.01 | 0.04 | 0.04 | 94 | 1012.6 |
| 20260902014016 | 76 | 26 | 1.7 | 3.5 | 0.01 | 0.04 | 0.04 | 94 | 1012.5 |
| 20260902013536 | 76 | 360 | 0.9 | 2.6 | 0.01 | 0.04 | 0.04 | 94 | 1012.5 |
| 20260902013016 | 76 | 360 | 0.9 | 2.6 | 0.01 | 0.04 | 0.04 | 94 | 1012.4 |
| 20260902012517 | 76 | 348 | 0.0 | 1.7 | 0.01 | 0.04 | 0.04 | 94 | 1012.3 |
| 20260902012016 | 76 | 0.0 | 0.0 | 0.01 | 0.04 | 0.04 | 94 | 1012.1 | |
| 20260902011516 | 76 | 0.0 | 1.7 | 0.01 | 0.04 | 0.04 | 94 | 1011.9 | |
| 20260902011016 | 76 | 182 | 0.0 | 5.2 | 0.01 | 0.04 | 0.04 | 94 | 1011.9 |
| 20260902010516 | 76 | 176 | 1.7 | 5.2 | 0.01 | 0.04 | 0.04 | 94 | 1011.7 |
| 20260902010016 | 76 | 177 | 1.7 | 5.2 | 0.01 | 0.03 | 0.03 | 94 | 1011.7 |
| 20260902005556 | 76 | 186 | 2.6 | 6.1 | 0.01 | 0.03 | 0.03 | 94 | 1011.6 |
| 20260902005016 | 76 | 169 | 3.5 | 6.1 | 0.01 | 0.03 | 0.03 | 94 | 1011.5 |
| 20260902004516 | 77 | 160 | 3.5 | 6.1 | 0.01 | 0.03 | 0.03 | 94 | 1011.5 |
| 20260902004016 | 77 | 162 | 3.5 | 6.1 | 0.01 | 0.03 | 0.03 | 93 | 1011.6 |
| 20260902003516 | 77 | 140 | 0.9 | 2.6 | 0.01 | 0.03 | 0.03 | 93 | 1011.8 |
| 20260902003016 | 77 | 134 | 1.7 | 2.6 | 0.01 | 0.03 | 0.03 | 93 | 1011.9 |
| 20260902002536 | 77 | 132 | 0.0 | 2.6 | 0.01 | 0.03 | 0.03 | 93 | 1012.2 |
| 20260902002017 | 77 | 0.0 | 0.9 | 0.01 | 0.03 | 0.03 | 93 | 1012.4 | |
| 20260902001516 | 77 | 18 | 0.0 | 0.9 | 0.02 | 0.03 | 0.03 | 93 | 1012.5 |
| 20260902001016 | 77 | 18 | 0.0 | 2.6 | 0.02 | 0.03 | 0.03 | 93 | 1012.5 |
| 20260902000536 | 77 | 17 | 0.0 | 3.5 | 0.02 | 0.03 | 0.03 | 93 | 1012.4 |
| 20260902000016 | 77 | 27 | 1.7 | 3.5 | 0.01 | 0.02 | 0.02 | 93 | 1012.3 |
| 20260901235516 | 78 | 88 | 1.7 | 7.0 | 0.01 | 0.02 | 0.02 | 93 | 1012.3 |
| 20260901235016 | 78 | 121 | 2.6 | 7.8 | 0.01 | 0.02 | 0.02 | 92 | 1012.3 |
| 20260901234536 | 78 | 119 | 5.2 | 7.8 | 0.01 | 0.02 | 0.02 | 92 | 1012.1 |
| 20260901234016 | 78 | 105 | 0.9 | 3.5 | 0.01 | 0.02 | 0.02 | 92 | 1012.8 |
| 20260901233517 | 78 | 0.0 | 2.6 | 0.01 | 0.02 | 0.02 | 92 | 1013.0 | |
| 20260901233016 | 78 | 331 | 0.9 | 3.5 | 0.01 | 0.02 | 0.02 | 92 | 1013.1 |
| 20260901232517 | 78 | 355 | 1.7 | 3.5 | 0.01 | 0.02 | 0.02 | 92 | 1013.1 |
| 20260901232016 | 78 | 351 | 0.0 | 2.6 | 0.01 | 0.02 | 0.02 | 91 | 1013.0 |
| 20260901231516 | 78 | 0.0 | 1.7 | 0.00 | 0.01 | 0.01 | 92 | 1012.9 | |
| 20260901231016 | 78 | 150 | 0.0 | 2.6 | 0.00 | 0.01 | 0.01 | 92 | 1012.7 |
| 20260901230516 | 78 | 145 | 0.9 | 2.6 | 0.00 | 0.01 | 0.01 | 92 | 1012.6 |
| 20260901230016 | 78 | 147 | 0.9 | 2.6 | 0.00 | 0.01 | 0.01 | 92 | 1012.4 |
| 20260901225516 | 78 | 125 | 0.0 | 0.9 | 0.00 | 0.01 | 0.01 | 92 | 1012.5 |
| 20260901225016 | 78 | 119 | 0.0 | 1.7 | 0.00 | 0.01 | 0.01 | 91 | 1012.6 |
| 20260901224516 | 78 | 124 | 0.0 | 1.7 | 0.00 | 0.01 | 0.01 | 90 | 1012.5 |
| 20260901224016 | 78 | 125 | 0.0 | 7.0 | 0.00 | 0.01 | 0.01 | 90 | 1012.6 |
| 20260901223516 | 78 | 133 | 2.6 | 7.0 | 0.00 | 0.01 | 0.01 | 90 | 1012.4 |
| 20260901223036 | 78 | 136 | 5.2 | 7.0 | 0.00 | 0.01 | 0.01 | 89 | 1012.3 |
| 20260901222516 | 79 | 136 | 1.7 | 3.5 | 0.00 | 0.02 | 0.01 | 88 | 1012.7 |
| 20260901222016 | 79 | 134 | 1.7 | 3.5 | 0.01 | 0.02 | 0.01 | 88 | 1012.9 |
| 20260901221516 | 79 | 151 | 0.0 | 1.7 | 0.01 | 0.02 | 0.01 | 87 | 1013.1 |
| 20260901221016 | 80 | 248 | 0.0 | 1.7 | 0.01 | 0.02 | 0.01 | 86 | 1013.4 |
| 20260901220515 | 80 | 291 | 0.0 | 1.7 | 0.01 | 0.02 | 0.01 | 86 | 1013.5 |
| 20260901220016 | 80 | 259 | 0.0 | 0.9 | 0.01 | 0.02 | 0.01 | 84 | 1013.3 |
| 20260901215537 | 80 | 258 | 0.0 | 1.7 | 0.01 | 0.02 | 0.01 | 83 | 1013.2 |
| 20260901215017 | 79 | 276 | 0.0 | 1.7 | 0.01 | 0.02 | 0.01 | 83 | 1013.1 |
| 20260901214515 | 80 | 269 | 0.0 | 1.7 | 0.01 | 0.02 | 0.01 | 83 | 1013.0 |
| 20260901214016 | 80 | 270 | 0.9 | 2.6 | 0.01 | 0.02 | 0.01 | 83 | 1012.8 |
| 20260901213536 | 80 | 263 | 0.0 | 2.6 | 0.01 | 0.02 | 0.01 | 82 | 1012.8 |
| 20260901213017 | 80 | 271 | 0.0 | 2.6 | 0.01 | 0.03 | 0.01 | 82 | 1012.8 |
| 20260901212516 | 80 | 211 | 0.0 | 1.7 | 0.01 | 0.03 | 0.01 | 83 | 1012.7 |
| 20260901212037 | 79 | 180 | 0.0 | 2.6 | 0.00 | 0.02 | 0.00 | 82 | 1012.7 |
| 20260901211516 | 79 | 325 | 0.9 | 3.5 | 0.00 | 0.02 | 0.00 | 83 | 1012.7 |
| 20260901211016 | 79 | 286 | 0.9 | 7.8 | 0.00 | 0.02 | 0.00 | 82 | 1012.9 |
| 20260901210537 | 80 | 230 | 2.6 | 8.7 | 0.00 | 0.02 | 0.00 | 81 | 1012.9 |
| 20260901210016 | 80 | 250 | 5.2 | 8.7 | 0.00 | 0.02 | 0.00 | 80 | 1012.9 |
| 20260901205516 | 80 | 249 | 4.3 | 7.8 | 0.00 | 0.03 | 0.00 | 78 | 1013.0 |
| 20260901205016 | 81 | 247 | 3.5 | 7.8 | 0.00 | 0.03 | 0.00 | 78 | 1012.8 |
| 20260901204517 | 81 | 257 | 4.3 | 7.8 | 0.00 | 0.03 | 0.00 | 78 | 1012.7 |
| 20260901204035 | 81 | 237 | 4.3 | 7.0 | 0.00 | 0.03 | 0.00 | 78 | 1012.6 |
| 20260901203516 | 81 | 237 | 3.5 | 10.4 | 0.00 | 0.03 | 0.00 | 77 | 1012.7 |
| 20260901203015 | 81 | 245 | 6.1 | 10.4 | 0.00 | 0.03 | 0.00 | 78 | 1012.6 |
| 20260901202516 | 81 | 244 | 6.1 | 10.4 | 0.00 | 0.03 | 0.00 | 76 | 1012.6 |
| 20260901202037 | 82 | 261 | 6.1 | 12.2 | 0.00 | 0.03 | 0.00 | 75 | 1012.7 |
| 20260901201515 | 82 | 254 | 8.7 | 12.2 | 0.00 | 0.03 | 0.00 | 74 | 1012.7 |
| 20260901201015 | 83 | 230 | 7.0 | 10.4 | 0.00 | 0.03 | 0.00 | 75 | 1012.7 |
| 20260901200517 | 83 | 234 | 6.1 | 11.3 | 0.00 | 0.03 | 0.00 | 76 | 1012.7 |
| 20260901200015 | 82 | 249 | 6.1 | 11.3 | 0.00 | 0.03 | 0.00 | 76 | 1012.6 |
| 20260901195515 | 82 | 253 | 4.3 | 10.4 | 0.00 | 0.03 | 0.00 | 75 | 1012.5 |
| 20260901195056 | 82 | 250 | 6.1 | 10.4 | 0.00 | 0.03 | 0.00 | 75 | 1012.6 |
| 20260901194516 | 82 | 214 | 4.3 | 10.4 | 0.00 | 0.03 | 0.00 | 79 | 1012.6 |
| 20260901194015 | 82 | 233 | 6.1 | 12.2 | 0.00 | 0.03 | 0.00 | 77 | 1012.6 |
| 20260901193517 | 82 | 200 | 6.1 | 12.2 | 0.00 | 0.03 | 0.00 | 77 | 1012.5 |
| 20260901193015 | 83 | 213 | 5.2 | 10.4 | 0.00 | 0.03 | 0.00 | 77 | 1012.6 |
| 20260901192517 | 83 | 194 | 4.3 | 8.7 | 0.00 | 0.03 | 0.00 | 78 | 1012.7 |
| 20260901192015 | 83 | 192 | 4.3 | 7.8 | 0.00 | 0.03 | 0.00 | 78 | 1012.7 |
| 20260901191516 | 82 | 212 | 2.6 | 9.6 | 0.00 | 0.03 | 0.00 | 81 | 1012.7 |
| 20260901191015 | 81 | 225 | 5.2 | 9.6 | 0.00 | 0.03 | 0.00 | 81 | 1012.9 |
| 20260901190536 | 81 | 227 | 5.2 | 8.7 | 0.00 | 0.03 | 0.00 | 79 | 1012.9 |
| 20260901190016 | 81 | 234 | 3.5 | 7.0 | 0.00 | 0.03 | 0.00 | 79 | 1012.9 |
| 20260901185535 | 82 | 244 | 3.5 | 8.7 | 0.00 | 0.03 | 0.00 | 79 | 1013.1 |
| 20260901185015 | 82 | 241 | 5.2 | 8.7 | 0.00 | 0.03 | 0.00 | 78 | 1013.3 |
| 20260901184516 | 82 | 226 | 3.5 | 7.0 | 0.00 | 0.03 | 0.00 | 79 | 1013.2 |
| 20260901184035 | 82 | 235 | 3.5 | 7.0 | 0.00 | 0.03 | 0.00 | 78 | 1013.1 |
| 20260901183517 | 82 | 213 | 2.6 | 9.6 | 0.00 | 0.03 | 0.00 | 79 | 1012.9 |
| 20260901183015 | 82 | 226 | 4.3 | 9.6 | 0.00 | 0.03 | 0.00 | 78 | 1012.8 |
| 20260901182516 | 82 | 206 | 3.5 | 7.8 | 0.00 | 0.03 | 0.00 | 79 | 1012.8 |
| 20260901182016 | 82 | 222 | 2.6 | 10.4 | 0.00 | 0.03 | 0.00 | 78 | 1012.7 |
| 20260901181517 | 83 | 226 | 4.3 | 10.4 | 0.00 | 0.03 | 0.00 | 78 | 1012.9 |
| 20260901181035 | 83 | 239 | 5.2 | 9.6 | 0.00 | 0.03 | 0.00 | 77 | 1013.0 |
| 20260901180515 | 83 | 219 | 6.1 | 12.2 | 0.00 | 0.03 | 0.00 | 76 | 1013.3 |
| 20260901180015 | 84 | 237 | 7.8 | 13.9 | 0.00 | 0.03 | 0.00 | 76 | 1013.3 |
| 20260901175516 | 84 | 233 | 7.8 | 13.9 | 0.00 | 0.03 | 0.00 | 76 | 1013.6 |
| 20260901175015 | 84 | 246 | 7.0 | 13.9 | 0.00 | 0.03 | 0.00 | 75 | 1013.6 |
| 20260901174516 | 84 | 243 | 8.7 | 13.0 | 0.00 | 0.03 | 0.00 | 76 | 1013.6 |
| 20260901174017 | 84 | 238 | 7.8 | 12.2 | 0.00 | 0.03 | 0.00 | 76 | 1013.6 |
| 20260901173516 | 84 | 245 | 6.1 | 12.2 | 0.00 | 0.03 | 0.00 | 77 | 1013.4 |
| 20260901173015 | 83 | 236 | 5.2 | 8.7 | 0.00 | 0.03 | 0.00 | 77 | 1013.3 |
| 20260901172536 | 83 | 224 | 5.2 | 8.7 | 0.00 | 0.03 | 0.00 | 78 | 1013.2 |
| 20260901172016 | 83 | 241 | 5.2 | 7.8 | 0.00 | 0.03 | 0.00 | 78 | 1013.3 |
| 20260901171515 | 83 | 268 | 4.3 | 9.6 | 0.00 | 0.03 | 0.00 | 78 | 1013.3 |
| 20260901171015 | 83 | 258 | 7.0 | 9.6 | 0.00 | 0.03 | 0.00 | 78 | 1013.5 |
| 20260901170515 | 82 | 252 | 4.3 | 10.4 | 0.00 | 0.03 | 0.00 | 79 | 1013.4 |
| 20260901170015 | 82 | 247 | 7.0 | 11.3 | 0.00 | 0.03 | 0.00 | 78 | 1013.4 |
| 20260901165535 | 82 | 247 | 7.0 | 11.3 | 0.00 | 0.03 | 0.00 | 78 | 1013.4 |
| 20260901165015 | 82 | 252 | 6.1 | 9.6 | 0.00 | 0.03 | 0.00 | 78 | 1013.4 |
| 20260901164515 | 83 | 226 | 6.1 | 9.6 | 0.00 | 0.03 | 0.00 | 77 | 1013.4 |
| 20260901164015 | 82 | 235 | 4.3 | 8.7 | 0.00 | 0.03 | 0.00 | 80 | 1013.3 |
| 20260901163515 | 82 | 236 | 4.3 | 9.6 | 0.00 | 0.03 | 0.00 | 79 | 1013.3 |
| 20260901163015 | 82 | 253 | 5.2 | 9.6 | 0.00 | 0.03 | 0.00 | 80 | 1013.3 |
| 20260901162515 | 82 | 252 | 3.5 | 8.7 | 0.00 | 0.03 | 0.00 | 79 | 1013.3 |
| 20260901162055 | 81 | 237 | 4.3 | 9.6 | 0.00 | 0.03 | 0.00 | 80 | 1013.3 |
| 20260901161535 | 81 | 277 | 4.3 | 9.6 | 0.00 | 0.03 | 0.00 | 79 | 1013.4 |
| 20260901161015 | 81 | 247 | 4.3 | 9.6 | 0.00 | 0.03 | 0.00 | 80 | 1013.4 |
| 20260901160515 | 81 | 268 | 5.2 | 9.6 | 0.00 | 0.03 | 0.00 | 80 | 1013.3 |
| 20260901160015 | 81 | 262 | 6.1 | 8.7 | 0.00 | 0.03 | 0.00 | 79 | 1013.4 |
| 20260901155535 | 81 | 233 | 5.2 | 8.7 | 0.00 | 0.03 | 0.00 | 81 | 1013.4 |
| 20260901155015 | 81 | 232 | 4.3 | 8.7 | 0.00 | 0.03 | 0.00 | 80 | 1013.4 |
| 20260901154517 | 81 | 232 | 4.3 | 9.6 | 0.00 | 0.03 | 0.00 | 80 | 1013.4 |
| 20260901154019 | 81 | 230 | 5.2 | 10.4 | 0.00 | 0.03 | 0.00 | 79 | 1013.3 |
| 20260901153518 | 81 | 230 | 6.1 | 10.4 | 0.00 | 0.03 | 0.00 | 80 | 1013.2 |
| 20260901153017 | 81 | 238 | 3.5 | 7.8 | 0.00 | 0.03 | 0.00 | 82 | 1013.2 |
| 20260901152517 | 80 | 237 | 4.3 | 9.6 | 0.00 | 0.03 | 0.00 | 82 | 1013.3 |
| 20260901152037 | 80 | 231 | 6.1 | 10.4 | 0.00 | 0.03 | 0.00 | 81 | 1013.4 |
| 20260901151517 | 80 | 235 | 6.1 | 10.4 | 0.00 | 0.03 | 0.00 | 82 | 1013.4 |
| 20260901151017 | 80 | 249 | 6.1 | 9.6 | 0.00 | 0.03 | 0.00 | 81 | 1013.4 |
| 20260901150517 | 80 | 238 | 5.2 | 9.6 | 0.00 | 0.03 | 0.00 | 81 | 1013.3 |
| 20260901150017 | 80 | 243 | 6.1 | 9.6 | 0.00 | 0.03 | 0.00 | 81 | 1013.3 |
| 20260901145517 | 80 | 253 | 4.3 | 11.3 | 0.00 | 0.03 | 0.00 | 81 | 1013.3 |
| 20260901145017 | 80 | 232 | 7.0 | 11.3 | 0.00 | 0.03 | 0.00 | 81 | 1013.3 |
| 20260901144537 | 80 | 234 | 6.1 | 9.6 | 0.00 | 0.03 | 0.00 | 82 | 1013.2 |
| 20260901144037 | 79 | 234 | 5.2 | 8.7 | 0.00 | 0.03 | 0.00 | 82 | 1013.2 |
| 20260901143518 | 79 | 236 | 5.2 | 10.4 | 0.00 | 0.03 | 0.00 | 83 | 1013.2 |
| 20260901143017 | 79 | 228 | 5.2 | 10.4 | 0.00 | 0.03 | 0.00 | 83 | 1013.2 |
| 20260901142557 | 79 | 236 | 6.1 | 10.4 | 0.00 | 0.03 | 0.00 | 83 | 1013.3 |
| 20260901142017 | 78 | 244 | 5.2 | 10.4 | 0.00 | 0.03 | 0.00 | 83 | 1013.3 |
| 20260901141517 | 78 | 242 | 5.2 | 9.6 | 0.00 | 0.03 | 0.00 | 83 | 1013.3 |
| 20260901141017 | 78 | 254 | 5.2 | 8.7 | 0.00 | 0.03 | 0.00 | 83 | 1013.3 |
| 20260901140517 | 78 | 245 | 4.3 | 7.8 | 0.00 | 0.04 | 0.00 | 84 | 1013.2 |
| 20260901140037 | 77 | 251 | 3.5 | 7.8 | 0.00 | 0.04 | 0.00 | 84 | 1013.2 |
| 20260901135518 | 77 | 246 | 3.5 | 6.1 | 0.00 | 0.04 | 0.00 | 85 | 1013.2 |
| 20260901135017 | 77 | 247 | 2.6 | 6.1 | 0.00 | 0.04 | 0.00 | 85 | 1013.1 |
| 20260901134517 | 76 | 247 | 3.5 | 8.7 | 0.00 | 0.04 | 0.00 | 86 | 1013.2 |
| 20260901134017 | 76 | 249 | 4.3 | 8.7 | 0.00 | 0.04 | 0.00 | 87 | 1013.2 |
| 20260901133517 | 75 | 259 | 3.5 | 8.7 | 0.00 | 0.04 | 0.00 | 88 | 1013.2 |
| 20260901133017 | 75 | 237 | 1.7 | 6.1 | 0.00 | 0.04 | 0.00 | 90 | 1013.1 |
| 20260901132518 | 74 | 244 | 2.6 | 4.3 | 0.00 | 0.04 | 0.00 | 91 | 1013.2 |
| 20260901132017 | 74 | 242 | 0.9 | 4.3 | 0.00 | 0.04 | 0.00 | 92 | 1013.2 |
| 20260901131517 | 73 | 230 | 0.9 | 4.3 | 0.00 | 0.04 | 0.00 | 93 | 1013.3 |
| 20260901131017 | 73 | 210 | 0.9 | 5.2 | 0.00 | 0.04 | 0.00 | 94 | 1013.3 |
| 20260901130517 | 72 | 216 | 1.7 | 5.2 | 0.00 | 0.04 | 0.00 | 95 | 1013.2 |
| 20260901130016 | 72 | 214 | 0.9 | 4.3 | 0.00 | 0.04 | 0.00 | 95 | 1013.1 |
| 20260901125516 | 72 | 202 | 0.0 | 2.6 | 0.00 | 0.04 | 0.00 | 95 | 1013.1 |
| 20260901125016 | 71 | 218 | 0.9 | 3.5 | 0.00 | 0.04 | 0.00 | 96 | 1013.1 |
| 20260901124517 | 71 | 202 | 0.9 | 3.5 | 0.00 | 0.04 | 0.00 | 96 | 1013.1 |
| 20260901124016 | 71 | 197 | 0.9 | 3.5 | 0.00 | 0.04 | 0.00 | 96 | 1013.1 |
| 20260901123518 | 70 | 210 | 0.9 | 3.5 | 0.00 | 0.04 | 0.00 | 96 | 1013.2 |
| 20260901123017 | 70 | 196 | 0.0 | 1.7 | 0.00 | 0.04 | 0.00 | 96 | 1013.2 |
| 20260901122517 | 70 | 204 | 0.0 | 1.7 | 0.00 | 0.04 | 0.00 | 96 | 1013.1 |
| 20260901122018 | 69 | 200 | 0.9 | 1.7 | 0.00 | 0.04 | 0.00 | 96 | 1013.2 |
| 20260901121518 | 69 | 167 | 0.0 | 2.6 | 0.00 | 0.04 | 0.00 | 96 | 1013.0 |
| 20260901121017 | 69 | 169 | 0.0 | 2.6 | 0.00 | 0.04 | 0.00 | 96 | 1013.1 |